Location: Saint Louis
(38.6272°N, 90.1978°W)
Time: 16:07:21
(UTC-05:00)

ISS - Pass Details

Date: 08 April 2013
Orbit: 401 x 404 km, 51.6° (Epoch: 27 July)

Event Time Altitude Azimuth Distance (km) Brightness Sun altitude
Rises 20:23:23 0° 221° (SW) 2,336 0.8 -10.7°
Reaches altitude 10° 20:25:28 10° 217° (SW) 1,483 -0.2 -11.1°
Maximum altitude 20:28:45 58° 138° (SE) 491 -3.2 -11.7°
Drops below altitude 10° 20:32:05 10° 58° (ENE) 1,508 -0.8 -12.3°
Enters shadow 20:32:16 - 58° (ENE) 1,583 -0.7 -12.3°
